RH
52 52 51 50 42 31 34 38 44 47 45 45 43 41 35 31 26 20 19 20 23 27 29 31 37 41 42 44 45 46 45 48 55 58 58 54 51 55 57 56 57 55 52 53 55 53 50 49 50 54 56 56 54 52 48 45 43 42 38 35 33 31 30 27 24 25 26 28 33 35 32 29 26 23 22 20 17 18 19 19 18 13 10 9 9 10 11 11 12 13 13 14 13 14 14 13 14
53 53 52 51 45 35 37 39 45 49 45 45 42 40 35 31 29 23 22 22 24 27 27 28 36 41 43 44 43 46 49 51 57 60 58 53 53 55 55 56 57 53 53 54 54 53 50 46 48 54 55 55 55 51 48 45 43 42 39 35 32 30 29 27 25 26 27 28 30 31 32 28 22 22 21 21 18 15 16 16 17 18 18 17 14 12 12 12 12 13 14 14 13 14 14 14 14
54 54 54 53 47 37 39 41 46 48 45 45 40 38 35 35 33 27 25 24 26 28 24 25 35 41 43 45 45 49 52 53 59 64 60 53 53 56 55 56 55 51 53 54 53 51 49 47 47 51 52 54 56 53 48 46 43 41 39 35 32 29 28 27 27 28 28 26 26 26 26 23 21 21 20 19 16 15 18 18 21 24 26 27 24 17 13 12 12 13 13 13 13 13 13 14 14
54 54 54 53 47 39 42 45 46 46 44 45 40 36 38 38 33 26 25 25 25 25 22 25 34 39 42 46 48 50 51 51 58 63 59 51 52 55 54 55 53 51 51 51 50 48 47 48 49 49 50 52 55 55 49 45 44 41 38 34 31 28 27 27 26 26 26 24 23 22 21 20 20 18 16 16 12 14 17 16 20 25 27 29 29 21 14 13 13 14 13 13 13 13 14 14 14
54 56 56 54 50 40 41 45 46 45 42 43 40 36 38 36 30 26 26 26 22 19 19 24 31 37 41 44 46 51 52 48 51 58 54 46 49 53 53 53 51 50 50 50 49 46 45 47 49 49 48 50 54 56 51 46 44 40 36 32 29 27 26 26 25 24 21 20 17 15 14 15 15 13 13 14 13 15 16 15 20 26 28 29 30 23 15 13 13 14 13 14 14 14 15 14 14
56 58 58 56 53 41 40 46 46 45 41 40 39 37 36 31 26 24 23 22 18 17 20 24 29 35 44 46 47 53 53 47 46 50 48 45 48 51 53 53 50 48 47 49 50 46 44 45 44 46 47 49 53 54 52 49 43 39 33 29 27 25 25 24 23 21 16 14 13 10 11 12 12 11 11 13 13 15 14 15 19 24 26 27 27 20 14 13 13 14 13 14 14 14 14 13 13
57 59 59 58 56 45 43 47 46 47 42 38 39 39 36 28 22 19 18 16 14 17 20 25 29 34 44 46 48 53 52 47 46 46 44 45 47 49 53 53 50 47 46 47 49 47 44 43 42 45 47 49 52 52 52 51 43 36 32 28 26 25 25 22 19 17 13 13 12 11 12 11 11 10 10 12 14 16 15 15 18 19 20 22 20 16 13 13 13 13 14 14 14 14 13 12 12
56 58 59 59 60 51 46 48 49 47 42 38 39 38 35 26 17 14 14 14 14 16 19 24 27 33 42 43 48 53 51 49 48 47 44 44 44 47 52 52 49 49 50 48 46 45 44 45 47 49 50 50 52 52 52 52 44 35 31 26 25 27 23 20 18 15 14 15 12 10 11 9 9 9 9 11 13 16 17 19 21 19 18 17 15 14 13 13 13 14 14 14 14 13 13 12 12
57 58 58 60 63 58 50 50 50 44 40 37 37 36 32 24 16 12 13 13 14 14 16 21 26 34 42 45 49 50 50 51 51 52 48 45 42 42 48 49 46 47 49 48 44 41 44 50 52 53 52 52 53 53 52 51 47 38 32 26 26 29 24 19 18 15 14 15 11 9 9 8 8 9 9 10 12 14 16 20 22 21 19 15 13 13 13 13 14 14 14 14 13 13 12 12 12
58 58 58 60 62 60 56 53 48 43 40 35 33 32 28 25 18 15 12 12 13 13 15 18 24 33 42 46 48 48 49 51 51 54 53 49 42 39 44 46 45 43 42 45 43 40 45 52 54 54 52 53 53 54 52 49 47 40 31 26 26 27 25 20 15 14 13 11 9 8 8 7 8 8 9 10 12 13 15 18 20 22 20 15 13 13 14 14 14 14 14 14 13 13 13 13 13
57 56 58 62 62 60 58 55 48 43 41 36 33 29 27 25 21 17 13 14 13 12 12 14 22 30 39 45 46 46 47 48 49 51 53 51 46 43 42 44 45 43 40 42 41 38 43 51 55 55 53 53 53 53 51 47 45 40 31 25 24 23 21 18 13 12 11 8 7 7 8 7 7 8 9 10 12 13 14 16 17 18 17 14 13 14 14 15 15 14 15 14 13 13 13 14 14
62 58 59 63 64 61 58 54 48 43 43 41 36 30 27 25 23 20 16 16 14 13 11 11 17 23 33 42 44 46 45 46 47 47 49 50 50 49 44 42 43 43 41 41 40 37 40 48 53 55 55 54 52 51 48 46 43 40 33 25 22 19 16 14 11 11 9 7 7 7 7 7 7 8 9 11 12 13 13 14 15 15 14 14 14 14 15 15 15 15 15 14 13 13 14 14 14
63 59 60 64 65 61 57 55 51 50 48 44 39 32 28 26 25 21 17 15 13 13 12 11 12 15 27 37 39 43 44 46 46 44 45 48 51 51 48 43 41 41 41 40 40 37 39 45 49 54 56 53 52 49 45 44 41 40 34 25 20 17 13 12 10 10 8 7 7 6 6 7 8 9 10 11 12 12 13 13 13 13 13 14 14 15 15 15 15 15 15 14 14 14 14 15 15
63 58 59 64 66 62 58 56 55 55 51 46 41 33 28 27 26 20 17 17 15 13 12 11 9 12 26 35 36 37 39 43 45 42 41 47 50 50 49 45 41 41 40 41 40 37 39 44 48 52 55 54 52 48 44 42 39 38 35 25 18 15 12 10 9 9 8 7 7 6 6 7 8 10 11 12 12 13 13 13 13 14 14 15 15 15 15 15 16 15 15 14 14 15 15 16 16
68 62 60 64 67 65 60 58 56 55 51 48 43 34 29 28 25 21 18 19 18 14 12 11 9 11 21 29 33 33 34 38 41 41 39 43 48 49 48 45 43 42 42 43 41 38 38 42 47 50 54 54 50 47 44 41 38 37 34 24 17 15 13 10 10 10 8 8 7 6 6 7 9 11 12 13 13 13 14 14 14 14 15 15 15 15 16 16 16 16 15 15 15 16 17 18 18
72 66 64 64 66 67 63 59 56 54 50 49 47 39 33 28 25 22 19 19 18 14 12 12 10 12 16 20 24 27 30 33 36 39 40 41 45 47 47 46 45 44 45 45 42 38 37 40 45 48 52 53 49 47 44 40 38 36 32 23 17 15 13 10 10 9 8 8 7 6 7 8 10 11 13 13 14 14 14 14 14 15 15 16 16 15 16 16 16 16 16 16 16 17 19 19 19
71 69 66 64 66 66 63 59 56 54 51 51 49 45 40 32 26 23 21 19 18 15 14 14 12 12 15 15 19 23 26 29 31 35 38 40 43 45 44 45 45 45 47 49 45 39 37 39 43 46 49 51 48 47 45 41 38 35 30 22 16 14 12 10 10 9 8 8 7 6 7 8 10 11 13 14 14 14 14 15 15 16 16 16 16 16 17 17 17 17 17 16 17 18 20 20 19
69 70 68 65 66 64 61 59 57 54 52 53 50 46 44 38 29 24 22 19 18 16 15 16 14 13 15 16 19 21 23 26 28 30 35 38 40 41 41 41 44 46 49 53 49 41 38 38 42 46 47 48 46 45 44 40 38 35 29 21 16 14 11 10 9 9 8 8 7 7 7 8 10 12 13 14 14 14 15 15 15 16 16 16 16 16 17 17 17 17 17 17 17 18 19 19 19
68 70 68 68 66 62 60 58 56 53 52 53 51 47 46 42 32 25 23 20 19 18 17 16 15 18 19 19 21 21 21 22 24 26 31 36 37 38 38 38 42 46 49 53 51 44 40 37 40 46 48 47 45 44 40 37 36 33 27 21 16 14 10 9 9 8 8 8 7 7 7 8 9 12 14 15 15 15 15 15 16 16 15 16 16 16 17 16 17 17 17 16 17 17 18 19 19
67 68 69 71 67 62 60 58 56 54 52 53 52 49 48 46 39 30 24 21 19 19 19 17 17 21 22 21 21 20 20 20 22 24 29 35 37 38 37 37 40 44 46 50 50 46 41 37 38 44 49 48 46 44 37 33 33 29 25 20 16 14 10 8 9 8 8 7 7 7 7 8 9 12 14 15 15 15 16 16 16 16 15 16 16 17 17 17 17 16 17 17 17 17 19 20 21
67 67 70 71 68 64 63 59 56 54 52 52 52 51 51 50 46 38 28 22 21 18 16 15 14 17 20 22 22 20 20 20 21 23 28 34 37 38 39 38 40 42 44 47 48 45 42 38 37 40 46 49 49 44 34 30 29 26 23 19 16 15 10 8 9 8 8 7 7 8 7 8 9 11 13 15 15 15 16 16 16 15 15 15 16 16 16 17 17 16 18 18 18 18 20 23 22
68 67 67 67 67 66 65 61 58 57 54 52 53 53 53 52 49 44 35 27 22 17 15 13 12 14 16 18 20 20 20 20 20 20 24 32 34 37 41 41 42 43 44 44 45 45 43 40 37 39 41 45 49 44 34 29 25 23 20 17 17 14 10 9 8 8 8 7 8 8 8 8 8 11 13 14 15 15 15 15 16 15 15 15 16 17 17 18 18 18 19 18 20 19 22 27 25
72 70 66 64 66 67 66 63 59 59 58 56 56 55 54 53 51 48 43 35 24 18 16 14 12 13 13 14 17 18 18 18 18 16 19 27 31 35 41 42 42 42 43 44 44 44 43 40 40 42 41 41 45 43 37 31 23 21 19 17 17 14 10 9 8 8 8 8 8 8 8 8 8 10 12 13 15 15 15 15 15 15 15 16 17 17 18 18 18 19 18 19 24 25 27 29 29
76 74 70 66 65 67 68 66 63 62 61 60 58 57 57 55 53 51 49 43 31 21 17 15 13 13 13 14 15 14 14 15 15 14 15 22 28 35 40 43 44 42 42 44 44 44 41 38 39 43 42 40 39 37 37 31 22 19 18 17 16 12 9 8 8 8 8 8 8 8 8 8 8 10 11 12 14 15 15 15 15 15 16 16 17 18 18 18 19 20 19 21 26 28 29 29 31
76 75 73 69 66 68 69 68 67 64 62 62 59 57 58 58 55 52 51 48 39 28 20 16 15 14 15 15 14 14 14 14 14 15 16 20 27 34 40 43 46 45 43 43 43 44 41 36 37 39 38 37 35 33 34 30 24 20 18 17 15 11 9 8 8 8 8 8 8 8 8 8 8 10 11 12 14 15 15 15 15 15 16 17 17 18 18 19 20 20 22 25 26 27 28 27 30
76 75 73 71 69 68 69 68 67 66 65 63 62 60 59 59 56 54 54 51 45 36 25 19 16 15 15 15 15 14 14 13 13 14 15 19 24 30 37 42 45 46 45 44 43 42 41 37 36 35 34 33 33 32 32 29 25 21 18 17 15 11 9 8 8 8 8 8 8 8 8 8 8 10 11 12 13 14 14 15 15 15 16 17 18 18 18 19 20 20 23 25 25 28 28 28 31
72 75 73 71 70 68 67 67 67 68 69 66 64 63 61 59 56 57 58 53 50 43 32 24 19 17 16 17 17 15 15 13 12 13 15 18 22 26 33 38 43 45 45 46 45 42 43 40 37 36 35 34 33 32 31 29 26 21 18 18 15 12 9 7 7 8 8 9 9 9 9 8 9 10 11 12 13 14 15 15 15 16 17 18 18 18 18 19 20 20 22 24 27 29 26 27 31
68 71 73 73 73 71 69 70 71 72 73 69 66 65 61 59 56 58 61 57 53 48 40 30 23 20 19 19 19 17 16 15 14 14 14 15 16 20 27 33 38 42 44 45 45 44 43 42 39 38 37 36 35 33 32 31 28 24 19 17 14 11 8 8 7 8 8 9 9 9 9 8 9 10 10 11 13 14 16 16 17 17 17 18 18 18 18 19 21 23 25 26 27 27 25 28 30
66 68 72 74 74 74 71 71 73 73 74 70 68 68 63 61 59 59 63 61 56 51 46 39 28 22 23 22 21 19 16 16 18 16 12 11 11 14 20 27 33 38 42 44 44 44 43 42 40 39 38 37 36 36 35 35 32 27 21 15 12 9 8 8 8 8 9 9 9 9 9 9 9 10 10 11 13 15 16 17 17 17 18 19 19 19 20 21 22 24 26 26 28 28 28 32 31
64 66 71 74 74 73 71 71 72 72 72 70 69 70 65 62 61 60 62 63 58 53 49 46 36 27 25 26 23 20 18 17 18 15 12 11 12 12 15 21 27 33 38 42 43 44 43 42 41 40 38 37 37 37 37 37 35 31 23 15 11 10 9 9 9 9 10 10 10 10 10 10 10 10 11 11 12 14 16 17 17 18 19 20 21 22 23 23 23 23 24 26 29 29 29 33 31
65 65 69 73 73 70 70 70 70 70 69 68 68 68 65 63 63 61 61 63 60 54 50 49 45 35 27 27 25 21 19 18 17 15 14 13 13 13 13 16 22 28 33 37 41 43 43 42 41 40 39 37 36 35 35 36 35 31 25 17 13 11 10 10 10 11 10 10 10 11 11 11 11 11 11 12 13 14 16 17 17 18 20 23 25 26 24 23 22 24 26 28 29 29 30 33 31
66 66 68 70 72 71 71 71 68 68 67 66 67 66 64 65 65 63 62 62 59 54 50 49 50 45 34 28 26 23 20 19 18 17 16 16 15 15 15 15 17 22 27 31 35 39 40 40 40 39 38 37 35 33 32 32 31 28 23 19 16 13 12 12 12 12 12 11 11 12 13 13 13 13 13 13 13 15 16 17 18 20 23 26 26 25 24 23 24 27 28 29 30 29 31 33 31
67 67 67 66 70 74 75 71 67 66 64 63 66 66 64 64 64 64 63 61 59 54 51 49 50 49 42 33 28 25 23 20 19 20 18 17 17 17 16 15 15 17 22 26 29 31 33 34 35 35 34 33 33 32 30 29 27 24 20 19 18 16 15 14 14 14 15 14 13 13 14 15 16 16 16 15 16 16 17 18 19 22 25 25 24 24 24 24 26 28 28 29 30 29 29 30 30
70 66 67 64 66 72 73 69 65 64 62 60 62 63 60 60 62 64 63 61 60 57 53 51 49 50 47 39 31 28 26 23 19 18 17 17 18 18 18 17 16 15 17 21 25 26 26 27 28 28 29 29 29 28 27 26 23 20 18 18 18 18 18 17 17 17 17 17 16 15 16 16 17 18 19 18 19 20 20 20 21 23 24 23 23 24 25 25 26 25 26 29 30 28 28 29 30
72 67 66 63 64 70 69 66 63 62 61 60 61 59 55 56 59 61 63 62 60 58 56 53 49 50 50 45 36 29 27 25 19 15 15 16 18 19 20 20 19 17 16 18 21 25 25 24 23 23 23 22 24 24 22 21 20 18 17 17 18 19 19 20 20 19 19 19 18 17 17 17 18 18 19 20 20 21 22 22 22 23 23 23 23 25 26 26 24 24 26 29 28 29 30 31 31
74 68 64 62 64 68 69 66 62 61 62 62 62 60 54 54 57 58 61 62 61 58 56 55 52 50 51 50 43 32 28 24 18 16 16 16 17 19 21 21 21 19 18 17 18 22 24 24 22 21 20 19 19 20 19 19 18 18 18 18 19 19 20 20 20 19 19 19 19 18 18 18 18 18 19 20 20 20 21 21 22 23 23 23 23 24 25 25 23 23 27 30 29 29 31 31 31
76 69 64 61 61 64 67 66 59 58 62 62 62 60 56 54 56 57 59 60 61 59 57 56 55 52 51 52 48 36 27 23 19 19 19 17 16 17 20 20 21 21 20 19 18 18 20 21 21 19 18 18 18 18 18 18 18 18 18 18 19 19 20 20 19 19 18 18 19 18 18 17 17 17 19 19 20 21 21 21 21 22 23 23 23 23 24 25 25 25 27 31 30 29 31 31 29
75 71 66 63 61 60 62 64 60 56 59 61 60 60 56 53 54 56 59 60 59 59 58 56 55 55 53 52 51 43 31 24 22 21 21 20 18 17 18 19 21 21 19 19 18 17 17 18 18 17 17 17 17 18 18 18 18 18 17 17 18 18 19 20 19 19 18 17 17 17 17 16 15 16 18 19 19 20 20 21 21 21 22 22 22 23 24 25 26 25 27 30 31 31 32 31 28
78 76 72 69 63 58 57 58 60 59 59 62 62 61 58 54 54 54 56 59 58 57 57 56 54 54 53 51 51 49 41 32 25 22 22 22 20 18 19 19 19 18 17 18 19 19 18 17 15 15 17 17 16 16 17 18 18 18 18 18 18 18 19 20 20 20 19 18 17 17 16 16 16 17 18 19 19 19 20 20 21 21 22 22 23 23 24 25 25 25 27 30 31 33 33 31 29
82 79 79 76 65 59 58 56 57 60 62 63 62 60 57 53 52 51 50 52 54 56 55 54 53 52 51 50 51 50 48 42 33 27 24 23 22 21 20 17 16 16 17 18 18 18 17 15 13 13 14 16 16 16 17 17 19 20 20 20 20 20 21 21 22 22 22 21 20 19 18 18 19 18 19 20 20 20 19 20 20 21 22 23 23 24 24 24 25 25 26 28 30 31 31 31 29
84 79 79 78 68 59 58 57 56 57 60 61 60 59 55 50 49 47 45 46 47 50 52 51 50 50 50 49 49 49 49 48 43 36 30 27 24 21 19 16 15 15 15 14 14 13 12 12 12 12 13 14 15 16 17 18 19 20 21 22 23 23 24 25 25 25 24 24 22 21 20 20 20 19 19 20 21 21 20 20 21 21 22 23 24 25 25 24 24 26 27 29 30 30 30 30 28
86 79 75 75 72 64 59 57 55 56 58 57 58 63 59 49 47 45 41 40 40 41 45 47 47 49 49 48 47 48 47 48 47 43 37 32 27 23 22 22 20 16 13 11 10 10 10 10 12 12 12 12 13 14 16 18 19 19 20 21 22 23 24 24 23 23 23 22 22 21 21 21 21 21 20 21 21 21 20 21 21 22 22 23 24 25 26 26 26 27 29 30 31 31 31 30 28
84 76 73 74 74 70 65 58 55 58 59 52 50 60 60 49 43 42 39 36 36 37 40 42 44 46 48 47 46 46 46 47 47 46 41 36 32 28 26 26 25 21 15 11 10 10 10 11 11 11 11 10 11 11 12 15 16 17 18 19 19 20 20 20 19 20 21 21 21 22 22 23 23 23 22 22 22 21 21 22 22 23 23 24 26 26 26 27 28 28 28 30 31 32 33 31 29
76 71 72 75 76 76 74 67 60 60 61 55 49 55 60 53 44 41 40 35 34 35 35 36 38 41 44 46 46 46 46 45 46 46 45 40 36 33 29 25 24 23 20 17 13 10 10 10 10 11 11 10 10 10 10 11 12 14 16 17 18 18 18 18 18 19 19 20 21 22 23 24 24 25 24 24 23 23 22 23 24 25 25 26 28 28 27 28 29 30 29 30 32 34 34 32 30
72 70 70 76 81 80 77 74 68 65 68 64 56 55 61 56 45 43 41 36 33 31 30 31 32 34 37 40 44 45 45 43 42 44 45 43 38 35 33 28 23 22 22 22 19 13 10 10 10 11 11 10 10 10 10 10 10 11 12 14 16 17 17 18 19 19 19 20 20 20 22 24 24 25 25 25 25 24 24 25 25 26 26 28 29 29 29 29 30 32 31 30 32 34 34 32 29
66 67 65 73 82 80 77 78 72 70 72 67 58 57 60 55 43 42 42 37 32 28 26 26 26 26 29 34 38 40 42 41 40 41 43 45 42 37 35 33 28 25 23 23 22 19 13 10 10 11 10 10 11 10 10 10 10 10 11 12 13 14 15 17 18 19 19 20 20 20 21 22 23 24 24 24 25 24 25 25 26 26 27 29 30 29 30 29 30 33 33 32 33 34 34 32 29
58 62 62 67 75 75 77 77 72 73 71 61 56 54 57 58 47 39 40 36 29 25 23 21 21 22 25 29 33 36 39 39 39 40 42 45 45 40 37 35 33 30 28 26 25 22 17 12 10 10 10 10 10 11 11 11 11 11 10 10 10 11 12 15 16 16 17 18 18 18 19 20 21 23 23 23 24 24 24 24 25 26 27 29 30 30 29 29 29 32 33 33 34 33 34 34 30
58 61 61 63 68 70 73 72 71 75 65 52 52 52 53 58 49 37 35 33 28 24 21 20 20 20 22 25 28 31 34 35 36 38 39 42 45 43 39 37 36 35 33 32 29 25 21 16 13 11 11 12 13 15 15 14 13 12 10 10 10 10 11 12 13 13 13 14 14 15 16 18 19 21 23 23 23 23 24 24 25 27 28 29 30 31 30 29 29 32 33 34 34 33 33 34 32
71 70 62 62 69 72 73 71 69 70 58 46 48 52 50 47 39 33 29 27 27 23 19 18 18 18 19 22 24 26 29 31 32 33 35 37 40 42 41 39 38 36 35 35 33 29 24 20 18 16 16 17 19 22 22 21 18 14 13 12 11 11 12 12 12 12 13 13 13 14 15 16 16 18 19 20 20 21 23 24 25 26 27 28 29 30 31 31 31 33 34 34 35 33 32 33 32
76 71 62 61 67 74 77 74 71 68 59 50 49 52 48 39 32 28 23 21 21 21 19 17 16 15 16 19 22 24 25 27 29 30 32 34 37 40 42 42 41 38 36 36 35 33 29 25 23 22 23 23 24 26 26 26 24 21 20 19 17 16 14 13 13 13 14 14 15 15 15 15 15 15 16 16 17 20 22 23 24 26 27 28 29 30 32 32 33 33 35 35 36 35 32 32 31
63 60 60 59 60 64 66 66 66 62 55 51 51 51 47 39 32 24 21 20 18 17 17 17 17 17 16 18 20 21 22 24 26 26 28 31 34 38 40 41 41 40 37 36 35 35 33 30 27 25 25 25 26 26 27 27 27 26 27 27 25 24 21 18 16 15 15 16 16 16 17 17 17 16 16 17 18 20 22 24 25 27 28 29 29 30 32 34 34 35 36 36 37 36 34 32 30
68 65 69 67 61 55 51 54 55 53 52 51 49 48 44 38 31 23 21 22 18 17 18 17 18 18 18 18 18 18 19 19 21 22 23 25 27 30 33 34 36 36 35 34 33 34 34 33 30 28 26 25 26 27 27 28 29 30 32 31 30 30 29 25 21 17 17 17 18 18 18 18 18 18 19 19 21 22 24 26 27 28 29 30 30 31 33 34 35 36 36 36 36 36 35 33 33
72 74 75 67 62 58 53 55 55 54 60 55 46 44 42 37 32 25 23 21 18 19 20 18 18 17 17 17 16 16 16 16 17 17 18 19 21 22 24 26 28 29 30 30 29 29 30 31 31 31 31 29 28 27 27 27 29 31 33 34 34 34 33 30 25 22 20 21 22 21 20 20 20 21 22 22 22 24 25 27 29 30 31 31 31 33 34 35 36 37 36 34 33 34 36 36 37
71 77 71 62 67 69 63 64 64 63 65 56 45 43 41 40 36 27 24 23 20 20 21 20 18 17 16 15 15 15 15 15 15 15 15 15 17 18 20 21 23 24 26 27 27 26 25 26 27 28 29 30 28 26 25 25 27 29 30 32 33 34 34 33 31 29 28 28 26 24 24 24 23 24 25 24 24 24 26 27 29 30 31 32 32 33 34 35 36 36 34 33 33 35 37 38 38
73 70 63 63 73 73 68 68 67 65 63 54 47 44 41 39 34 26 23 24 23 22 22 21 19 17 15 14 14 14 14 15 14 15 15 15 16 17 17 19 20 22 24 24 25 25 24 24 24 24 25 26 26 25 24 23 24 25 27 28 30 32 34 35 35 35 36 35 31 29 28 27 26 27 27 27 27 26 27 28 30 31 32 33 33 34 34 35 36 35 33 33 35 37 38 39 39
80 75 70 70 70 67 64 60 58 59 58 54 51 48 44 38 31 27 24 22 21 22 23 24 21 18 16 15 15 14 14 15 15 16 16 16 16 16 16 17 18 20 22 22 24 24 24 24 24 24 24 24 25 25 24 22 21 22 23 24 27 30 33 36 38 39 40 39 36 35 34 31 30 30 29 29 29 29 30 30 32 33 33 34 34 34 35 35 36 35 35 35 37 38 38 39 39
82 81 77 74 71 70 67 61 61 61 59 59 57 52 46 38 30 27 25 21 20 21 23 24 21 18 17 17 16 15 15 15 15 16 16 16 15 15 15 15 16 17 19 20 22 23 24 25 24 24 24 23 23 23 23 22 21 21 21 20 22 25 29 33 36 39 41 42 42 43 42 40 38 35 33 31 31 31 32 33 34 35 35 35 35 35 35 35 36 37 36 37 38 38 39 40 40
72 73 72 70 71 73 74 74 70 64 61 61 58 53 46 38 31 27 23 22 22 22 23 22 20 18 17 16 16 15 15 15 14 15 15 15 15 14 14 14 14 14 16 17 19 20 22 23 24 24 24 23 23 22 22 22 21 21 20 18 18 21 25 28 32 35 38 41 43 46 46 46 45 42 39 36 35 34 35 35 35 36 36 36 36 36 37 37 37 37 37 38 38 39 40 39 40